Cook, MN

7:39 PM CDT on July 26, 2017 (GMT -0500)
Cook Municipal

Weather History for KCQM - June, 2013

Change the Weather History Date:

Wednesday, June 19, 2013

  Actual Average Record
Temperature  
Mean Temperature 61 °F -  
Max Temperature 80 °F 70 °F 87 °F (2005)
Min Temperature 42 °F 48 °F 33 °F (2000)
Degree Days  
Heating Degree Days 4    
Growing Degree Days 11 (Base 50)    
Moisture  
Dew Point 50 °F    
Average Humidity 65    
Maximum Humidity 93    
Minimum Humidity 34    
Precipitation  
Precipitation 0.00 in - - ()
Sea Level Pressure  
Sea Level Pressure 30.01 in    
Wind  
Wind Speed 2 mph (SSW)    
Max Wind Speed 10 mph    
Max Gust Speed 16 mph    
Visibility 10 miles    
Events      
Averages and records for this station are not official NWS values.
T = Trace of Precipitation, MM = Missing Value Source: NWS Daily Summary

Daily Weather History Graph

Daily Weather History Graph

Search for Another Location

Airport or City:

Trip Planner

Search our weather history database for the weather conditions in past years. The results will help you decide how hot, cold, wet, or windy it might be!

Date:

Astronomy

Jun. 19, 2013 Rise Set
Actual Time 5:11 AM CDT 9:12 PM CDT
Civil Twilight 4:30 AM CDT 9:53 PM CDT
Nautical Twilight 3:33 AM CDT 10:50 PM CDT
Astronomical Twilight 1:58 AM CDT 12:26 AM CDT
Moon 4:54 PM CDT (6/19) 2:11 AM CDT (6/19)
Length of Visible Light 17h 23m
Length of Day
16h 01m
Waxing Gibbous, 80% of the Moon is Illuminated
Jun 19
Waxing Gibbous
Jun 23
Full
Jun 29
Last Quarter
Jul 8
New
Jul 15
First Quarter

Hourly Weather History & Observations

Time (CDT) Temp. Windchill Dew Point Humidity Pressure Visibility Wind Dir Wind Speed Gust Speed Precip Events Conditions
12:16 AM 48.2 °F - 39.2 °F 71% 30.07 in 10.0 mi Calm Calm - N/A   Clear
12:37 AM 46.4 °F - 39.2 °F 76% 30.07 in 10.0 mi Calm Calm - N/A   Clear
12:57 AM 46.4 °F - 39.2 °F 76% 30.07 in 10.0 mi Calm Calm - N/A   Clear
1:16 AM 44.6 °F - 37.4 °F 76% 30.06 in 10.0 mi Calm Calm - N/A   Clear
1:37 AM 44.6 °F - 39.2 °F 81% 30.05 in 10.0 mi Calm Calm - N/A   Clear
1:57 AM 44.6 °F - 37.4 °F 76% 30.05 in 10.0 mi Calm Calm - N/A   Clear
2:16 AM 46.4 °F 45.2 °F 37.4 °F 71% 30.05 in 10.0 mi SSE 3.5 mph - N/A   Clear
2:37 AM 46.4 °F 45.2 °F 39.2 °F 76% 30.04 in 10.0 mi SSE 3.5 mph - N/A   Clear
2:57 AM 50.0 °F - 39.2 °F 66% 30.05 in 10.0 mi Calm Calm - N/A   Clear
3:16 AM 48.2 °F - 39.2 °F 71% 30.04 in 10.0 mi Calm Calm - N/A   Clear
3:37 AM 48.2 °F - 39.2 °F 71% 30.04 in 10.0 mi Calm Calm - N/A   Scattered Clouds
3:57 AM 48.2 °F - 39.2 °F 71% 30.04 in 10.0 mi Calm Calm - N/A   Mostly Cloudy
4:16 AM 46.4 °F - 39.2 °F 76% 30.04 in 10.0 mi Calm Calm - N/A   Mostly Cloudy
4:37 AM 44.6 °F - 39.2 °F 81% 30.04 in 10.0 mi Calm Calm - N/A   Scattered Clouds
4:57 AM 42.8 °F - 39.2 °F 87% 30.05 in 10.0 mi Calm Calm - N/A   Mostly Cloudy
5:16 AM 42.8 °F - 39.2 °F 87% 30.05 in 10.0 mi Calm Calm - N/A   Overcast
5:37 AM 44.6 °F - 41.0 °F 87% 30.05 in 10.0 mi Calm Calm - N/A   Overcast
5:56 AM 44.6 °F - 42.8 °F 93% 30.05 in 10.0 mi Calm Calm - N/A   Overcast
6:17 AM 46.4 °F - 42.8 °F 87% 30.04 in 10.0 mi Calm Calm - N/A   Overcast
6:37 AM 48.2 °F - 46.4 °F 93% 30.04 in 10.0 mi Calm Calm - N/A   Overcast
6:56 AM 50.0 °F - 46.4 °F 87% 30.04 in 10.0 mi Calm Calm - N/A   Overcast
7:17 AM 53.6 °F - 46.4 °F 77% 30.05 in 10.0 mi Calm Calm - N/A   Overcast
7:37 AM 55.4 °F - 46.4 °F 72% 30.05 in 10.0 mi Calm Calm - N/A   Overcast
7:56 AM 57.2 °F - 48.2 °F 72% 30.05 in 10.0 mi Calm Calm - N/A   Mostly Cloudy
8:17 AM 59.0 °F - 48.2 °F 67% 30.06 in 10.0 mi Calm Calm - N/A   Mostly Cloudy
8:37 AM 60.8 °F - 50.0 °F 68% 30.05 in 10.0 mi Calm Calm - N/A   Mostly Cloudy
8:56 AM 60.8 °F - 51.8 °F 72% 30.05 in 10.0 mi Calm Calm - N/A   Mostly Cloudy
9:17 AM 62.6 °F - 51.8 °F 68% 30.04 in 10.0 mi South 4.6 mph - N/A   Scattered Clouds
9:37 AM 64.4 °F - 53.6 °F 68% 30.04 in 10.0 mi South 5.8 mph - N/A   Scattered Clouds
9:56 AM 66.2 °F - 53.6 °F 64% 30.03 in 10.0 mi South 4.6 mph - N/A   Scattered Clouds
10:17 AM 69.8 °F - 53.6 °F 56% 30.03 in 10.0 mi South 8.1 mph - N/A   Scattered Clouds
10:37 AM 69.8 °F - 55.4 °F 60% 30.03 in 10.0 mi SSW 10.4 mph - N/A   Scattered Clouds
10:45 AM 69.8 °F - 55.4 °F 60% 30.03 in 10.0 mi SW 8.1 mph - N/A   Clear
12:32 PM 73.4 °F - - N/A% 30.02 in - SW 10.4 mph - N/A   Unknown
12:37 PM 73.4 °F - 55.4 °F 53% 30.02 in 10.0 mi SW 8.1 mph - N/A   Unknown
12:56 PM 73.4 °F - 55.4 °F 53% 30.01 in 10.0 mi SSW 6.9 mph - N/A   Scattered Clouds
1:17 PM 73.4 °F - 55.4 °F 53% 30.00 in 10.0 mi South 9.2 mph - N/A   Scattered Clouds
1:37 PM 73.4 °F - 55.4 °F 53% 30.00 in 10.0 mi SSW 8.1 mph - N/A   Clear
1:56 PM 75.2 °F - 53.6 °F 47% 29.99 in 10.0 mi South 9.2 mph - N/A   Clear
2:17 PM 77.0 °F - 51.8 °F 41% 29.98 in 10.0 mi SSW 10.4 mph - N/A   Clear
2:36 PM 77.0 °F - 53.6 °F 44% 29.97 in 10.0 mi South 10.4 mph 16.1 mph N/A   Clear
2:57 PM 77.0 °F - 51.8 °F 41% 29.97 in 10.0 mi SW 8.1 mph - N/A   Scattered Clouds
3:16 PM 77.0 °F - 51.8 °F 41% 29.96 in 10.0 mi SW 5.8 mph - N/A   Scattered Clouds
3:36 PM 80.6 °F - 50.0 °F 34% 29.96 in 10.0 mi SSW 10.4 mph - N/A   Clear
3:57 PM 78.8 °F - 51.8 °F 39% 29.96 in 10.0 mi SW 6.9 mph - N/A   Scattered Clouds
4:16 PM 78.8 °F - 51.8 °F 39% 29.96 in 10.0 mi South 6.9 mph - N/A   Mostly Cloudy
4:36 PM 80.6 °F - 53.6 °F 39% 29.95 in 10.0 mi SSW 9.2 mph - N/A   Scattered Clouds
4:57 PM 78.8 °F - 53.6 °F 42% 29.95 in 10.0 mi SW 4.6 mph - N/A   Scattered Clouds
5:16 PM 78.8 °F - 51.8 °F 39% 29.95 in 10.0 mi SSW 8.1 mph - N/A   Scattered Clouds
5:36 PM 78.8 °F - 51.8 °F 39% 29.94 in 10.0 mi SW 8.1 mph - N/A   Scattered Clouds
5:57 PM 78.8 °F - 51.8 °F 39% 29.94 in 10.0 mi SSW 5.8 mph - N/A   Scattered Clouds
6:16 PM 77.0 °F - 51.8 °F 41% 29.94 in 10.0 mi SSW 5.8 mph - N/A   Scattered Clouds
6:36 PM 77.0 °F - 53.6 °F 44% 29.94 in 10.0 mi SSW 5.8 mph - N/A   Mostly Cloudy
6:57 PM 78.8 °F - 51.8 °F 39% 29.94 in 10.0 mi SSW 5.8 mph - N/A   Mostly Cloudy
7:16 PM 77.0 °F - 51.8 °F 41% 29.94 in 10.0 mi Calm Calm - N/A   Mostly Cloudy
7:37 PM 73.4 °F - 55.4 °F 53% 29.94 in 10.0 mi Calm Calm - N/A   Overcast
7:57 PM 71.6 °F - 55.4 °F 57% 29.95 in 10.0 mi NE 4.6 mph - N/A   Overcast
8:16 PM 71.6 °F - 57.2 °F 60% 29.95 in 10.0 mi Calm Calm - N/A   Overcast
8:37 PM 69.8 °F - 57.2 °F 64% 29.95 in 10.0 mi Calm Calm - N/A   Overcast
8:57 PM 68.0 °F - 57.2 °F 68% 29.96 in 10.0 mi Calm Calm - N/A   Overcast
9:16 PM 66.2 °F - 59.0 °F 78% 29.97 in 10.0 mi NNW 3.5 mph - N/A   Overcast
9:37 PM 66.2 °F - 60.8 °F 83% 29.97 in 10.0 mi Calm Calm - N/A   Overcast
9:56 PM 64.4 °F - 60.8 °F 88% 29.98 in 10.0 mi Calm Calm - N/A   Overcast
10:16 PM 64.4 °F - 60.8 °F 88% 29.98 in 10.0 mi Calm Calm - N/A   Scattered Clouds
10:37 PM 64.4 °F - 59.0 °F 83% 29.98 in 10.0 mi Calm Calm - N/A   Scattered Clouds
10:56 PM 64.4 °F - 59.0 °F 83% 29.99 in 10.0 mi Calm Calm - N/A   Clear
11:17 PM 62.6 °F - 59.0 °F 88% 29.98 in 10.0 mi Calm Calm - N/A   Clear
11:37 PM 62.6 °F - 59.0 °F 88% 29.99 in 10.0 mi Calm Calm - N/A   Clear
11:57 PM 60.8 °F - 57.2 °F 88% 29.99 in 10.0 mi Calm Calm - N/A   Scattered Clouds